[[{"header":{"parameterUnit":"m.s-1","parameterCategory":1,"la1":30.2991,"la2":30.254,"lo1":-89.0895,"lo2":-89.0444,"dy":0.0017,"dx":0.0017,"nx":28,"ny":28,"refTime":"2023-08-19T09:00:00:Z","depth":0,"parameterNumber":2,"parameterNumberName":"U-component_of_WINDS"},"data":[0,0,0,0,0,0,0,0,0,0,0,0,0,0,0,0,0,0,0,0,0,0,0,0,0,0,0,0,0,0,0,0,0,0,0,0,0,0,0,0,0,0,0,0,0,0,0,0,0,0,0,0,0,0,0,0,0,0,-3.327,-3.327,0,-3.3315,-3.3315,-3.3316,-3.3273,-3.3271,-3.327,-3.3268,-3.3316,-3.3318,-3.3321,0,0,0,0,0,0,0,0,0,0,0,0,0,-3.3149,-3.3152,-3.3269,-3.327,-3.3271,-3.3315,-3.3315,-3.3316,-3.3273,-3.3271,-3.3269,-3.3267,-3.3315,-3.3318,-3.3322,0,0,0,0,0,0,0,0,0,0,0,0,0,-3.3199,-3.3153,-3.3269,-3.3255,-3.3254,-3.3315,-3.3315,-3.3316,-3.3274,-3.3271,-3.3269,-3.3266,-3.3314,-3.3318,-3.3322,-3.34,0,0,-3.3335,-3.3337,0,0,0,0,0,0,0,0,-3.3196,-3.3203,-3.3256,-3.3256,-3.3255,-3.3286,-3.329,-3.3344,-3.3275,-3.3266,-3.3268,-3.3265,-3.3308,-3.3312,-3.3327,-3.3402,-3.3404,-3.3335,-3.3338,-3.334,-3.3341,0,0,0,0,0,0,0,-3.3193,-3.3201,-3.3287,-3.3257,-3.3256,-3.3247,-3.3251,-3.33,-3.3301,-3.3267,-3.3264,-3.327,-3.3307,-3.3323,-3.3327,-3.3405,-3.3335,-3.3339,-3.3342,-3.3343,-3.3549,-3.3552,0,0,0,0,0,0,-3.3191,-3.3199,-3.3286,-3.3289,-3.3219,-3.3251,-3.3256,-3.3278,-3.33,-3.3301,-3.3272,-3.3268,-3.3316,-3.3322,-3.3329,-3.3422,-3.334,-3.3344,-3.3346,-3.3546,-3.3549,-3.3553,0,0,0,0,0,0,-3.3188,-3.3199,-3.3284,-3.3243,-3.3253,-3.3256,-3.3282,-3.3281,-3.3296,-3.3304,-3.3304,-3.3287,-3.3315,-3.3323,-3.3383,-3.3423,-3.3346,-3.335,-3.3543,-3.3547,-3.3551,-3.3609,0,0,0,0,0,0,-3.3185,-3.3198,-3.3227,-3.3244,-3.3255,-3.3336,-3.3284,-3.3283,-3.3303,-3.3298,-3.3319,-3.332,-3.3313,-3.3377,-3.3387,-3.3428,-3.3353,-3.3539,-3.3545,-3.355,-3.3603,-3.3615,-3.3624,0,0,0,0,0,-3.3181,-3.3241,-3.3228,-3.3239,-3.3291,-3.3339,-3.3346,-3.3337,-3.3307,-3.3336,-3.3342,-3.3319,-3.3418,-3.3383,-3.3395,-3.3437,-3.3536,-3.3543,-3.3549,-3.3599,-3.3613,-3.3624,0,0,0,0,0,0,-3.3228,-3.3243,-3.3229,-3.3297,-3.3317,-3.3331,-3.3368,-3.3351,-3.3381,-3.3374,-3.3363,-3.3368,-3.3432,-3.3441,-3.3402,-3.3515,-3.3472,-3.3481,-3.3506,-3.3519,-3.353,-3.3525,-3.3357,0,0,0,0,0,-3.3247,-3.3284,-3.3295,-3.3353,-3.3364,-3.3365,-3.3385,-3.3377,-3.3398,-3.3406,-3.3416,-3.3437,-3.3473,-3.3497,-3.353,-3.3605,-3.361,-3.3641,-3.3651,-3.366,-3.3667,-3.3709,-3.3723,-3.3574,-3.3574,-3.3574,0,0,-3.3285,-3.3298,-3.3321,-3.3363,-3.3378,-3.3417,-3.3372,-3.3415,-3.3445,-3.3413,-3.347,-3.3478,-3.3502,-3.357,-3.3601,-3.3579,-3.371,-3.3668,-3.3675,-3.3678,-3.3717,-3.3731,-3.3744,-3.3578,-3.3577,-3.3577,0,0,-3.3374,-3.3388,-3.3438,-3.3455,-3.3478,-3.3478,-3.3491,-3.3509,-3.3513,-3.357,-3.3548,-3.3583,-3.3645,-3.3663,-3.368,-3.3781,-3.3761,-3.3792,-3.3846,-3.3887,-3.3899,-3.391,-3.3946,-3.3959,-3.38,-3.38,-3.38,0,-3.3419,-3.3476,-3.3467,-3.3512,-3.3532,-3.3506,-3.3558,-3.3574,-3.3607,-3.3622,-3.3598,-3.3677,-3.3691,-3.3763,-3.3788,-3.3803,-3.3818,-3.3789,-3.3898,-3.3908,-3.3918,-3.3952,-3.3966,-3.3804,-3.3803,-3.3803,-3.3803,0,-3.353,-3.3571,-3.361,-3.3642,-3.3667,-3.3715,-3.3714,-3.374,-3.3731,-3.3735,-3.3795,-3.3811,-3.3848,-3.3865,-3.3856,-3.3938,-3.3924,-3.39,-3.3856,-3.3936,-3.3968,-3.3981,-3.3809,-3.3808,-3.3807,-3.3806,0,0,-3.3648,-3.3677,-3.3691,-3.3707,-3.3732,-3.3764,-3.3812,-3.3848,-3.3871,-3.3896,-3.3937,-3.3992,-3.397,-3.399,-3.3984,-3.402,-3.4099,-3.3991,-3.3991,-3.401,-3.4191,-3.4208,-3.4224,-3.4087,-3.409,-3.4092,-3.4189,0,-3.3739,-3.3822,-3.3816,-3.3895,-3.3933,-3.391,-3.3953,-3.3974,-3.3979,-3.4014,-3.402,-3.4059,-3.4027,-3.4039,-3.4074,-3.4082,-3.4135,-3.4075,-3.4126,-3.4128,-3.4119,-3.424,-3.4259,-3.4349,-3.4201,-3.4204,-3.4205,0,-3.3854,-3.3883,-3.3966,-3.3987,-3.4003,-3.4041,-3.4075,-3.4108,-3.4132,-3.4134,-3.4158,-3.4146,-3.4196,-3.4154,-3.4224,-3.4183,-3.4205,-3.4212,-3.4215,-3.4219,-3.417,-3.4247,-3.4378,-3.4392,-3.4225,-3.4223,-3.4222,0,-3.3932,-3.3992,-3.405,-3.4064,-3.409,-3.4118,-3.413,-3.4152,-3.4175,-3.4205,-3.422,-3.4256,-3.4276,-3.4305,-3.4304,-3.4273,-3.4376,-3.4332,-3.4379,-3.4379,-3.44,-3.4399,-3.4536,-3.4415,-3.4415,-3.4415,-3.4415,0,-3.4033,-3.4085,-3.4085,-3.4121,-3.4179,-3.4173,-3.423,-3.424,-3.426,-3.4298,-3.4281,-3.4317,-3.4314,-3.4351,-3.4351,-3.441,-3.442,-3.4423,-3.4422,-3.4424,-3.4424,-3.4436,-3.443,-3.4419,-3.4418,-3.4417,-3.4416,0,-3.4129,-3.4131,-3.4193,-3.4213,-3.422,-3.4262,-3.428,-3.4314,-3.4319,-3.4367,-3.4379,-3.4387,-3.443,-3.4432,-3.4482,-3.4482,-3.4554,-3.4546,-3.4545,-3.4544,-3.459,-3.4586,-3.474,-3.4761,-3.4627,-3.4628,-3.4629,0,-3.4192,-3.4232,-3.4257,-3.4281,-3.4295,-3.4334,-3.4357,-3.4354,-3.438,-3.4412,-3.4443,-3.4485,-3.4517,-3.4588,-3.4599,-3.4637,-3.463,-3.4682,-3.4636,-3.4637,-3.4631,-3.4629,-3.4633,-3.4691,-3.4692,-3.4693,-3.4694,0,-3.4305,-3.4305,-3.4339,-3.4375,-3.4404,-3.4432,-3.4458,-3.4479,-3.4479,-3.4509,-3.4553,-3.4579,-3.463,-3.4672,-3.471,-3.4724,-3.471,-3.4709,-3.4722,-3.4724,-3.4721,-3.4723,-3.4569,-3.4705,-3.4704,-3.4703,-3.4703,-3.4702,-3.4387,-3.4421,-3.4445,-3.4484,-3.4504,-3.4529,-3.4563,-3.4573,-3.4609,-3.465,-3.4647,-3.4696,-3.4722,-3.4771,-3.4789,-3.4828,-3.4811,-3.4829,-3.4834,-3.4838,-3.4843,-3.4716,-3.4835,-3.4835,-3.4835,-3.4834,-3.4834,0,-3.4499,-3.4513,-3.455,-3.4587,-3.4619,-3.4603,-3.4632,-3.466,-3.4703,-3.4728,-3.4761,-3.4812,-3.4854,-3.4869,-3.491,-3.4939,-3.4933,-3.495,-3.4947,-3.4951,-3.4856,-3.4841,-3.4953,-3.4953,-3.4953,-3.4953,-3.4953,-3.4953,-3.4561,-3.4618,-3.4622,-3.469,-3.4704,-3.4752,-3.477,-3.4794,-3.4814,-3.4872,-3.4906,-3.4916,-3.4938,-3.4981,-3.5018,-3.5022,-3.5038,-3.5057,-3.5058,-3.4969,-3.4957,-3.4946,-3.4931,-3.5061,-3.5061,-3.5149,-3.515,-3.5151]},{"header":{"parameterUnit":"m.s-1","parameterCategory":1,"la1":30.2991,"la2":30.254,"lo1":-89.0895,"lo2":-89.0444,"dy":0.0017,"dx":0.0017,"nx":28,"ny":28,"refTime":"2023-08-19T09:00:00:Z","depth":0,"parameterNumber":3,"parameterNumberName":"V-component_of_WINDS"},"data":[0,0,0,0,0,0,0,0,0,0,0,0,0,0,0,0,0,0,0,0,0,0,0,0,0,0,0,0,0,0,0,0,0,0,0,0,0,0,0,0,0,0,0,0,0,0,0,0,0,0,0,0,0,0,0,0,0,0,2.8781,2.8781,0,2.88,2.8801,2.8801,2.8825,2.8825,2.8826,2.8826,2.8843,2.8843,2.8843,0,0,0,0,0,0,0,0,0,0,0,0,0,2.8764,2.8764,2.8781,2.8781,2.8782,2.88,2.8801,2.8801,2.8825,2.8825,2.8826,2.8826,2.8843,2.8843,2.8843,0,0,0,0,0,0,0,0,0,0,0,0,0,2.8776,2.8764,2.8781,2.8796,2.8798,2.88,2.8801,2.8801,2.8825,2.8825,2.8826,2.8827,2.8843,2.8843,2.8843,2.8832,0,0,2.8843,2.8843,0,0,0,0,0,0,0,0,2.8775,2.8776,2.8794,2.8795,2.8797,2.8811,2.8801,2.8811,2.8825,2.8814,2.8826,2.8827,2.8832,2.8833,2.8835,2.8833,2.8833,2.8843,2.8844,2.8844,2.8844,0,0,0,0,0,0,0,2.8774,2.8776,2.8789,2.8794,2.8796,2.8801,2.8804,2.8803,2.8819,2.8815,2.8817,2.8819,2.8833,2.8835,2.8835,2.8834,2.8843,2.8844,2.8844,2.8844,2.8824,2.8823,0,0,0,0,0,0,2.8771,2.8775,2.8788,2.8789,2.8787,2.8801,2.8804,2.8806,2.8819,2.8822,2.8819,2.882,2.8834,2.8835,2.8836,2.8824,2.8844,2.8844,2.8844,2.8824,2.8823,2.8823,0,0,0,0,0,0,2.8771,2.8772,2.8787,2.8783,2.8785,2.8801,2.8803,2.8806,2.8808,2.8822,2.8825,2.8818,2.8835,2.8836,2.8833,2.8825,2.8844,2.8844,2.8825,2.8824,2.8823,2.8799,0,0,0,0,0,0,2.877,2.8772,2.8768,2.8782,2.8785,2.8784,2.8802,2.8806,2.8808,2.8811,2.8822,2.8824,2.8835,2.8833,2.8833,2.8825,2.8844,2.8826,2.8824,2.8823,2.8801,2.8798,2.8795,0,0,0,0,0,2.877,2.876,2.8768,2.8769,2.8781,2.8784,2.8785,2.8799,2.8808,2.8804,2.8813,2.8824,2.8826,2.8832,2.8833,2.8825,2.8826,2.8825,2.8824,2.8802,2.8798,2.8795,0,0,0,0,0,0,2.8743,2.8762,2.8771,2.8766,2.8773,2.8788,2.8783,2.8794,2.8798,2.88,2.8816,2.8818,2.8813,2.8819,2.8826,2.8815,2.8828,2.8827,2.8811,2.8808,2.8805,2.8803,2.8844,0,0,0,0,0,2.8737,2.8738,2.8755,2.8748,2.8752,2.8767,2.8769,2.8779,2.8787,2.8789,2.8798,2.8805,2.8807,2.8808,2.8811,2.8802,2.8805,2.8797,2.8794,2.8792,2.879,2.8787,2.8783,2.8818,2.8818,2.8818,0,0,2.8723,2.8734,2.8734,2.8743,2.875,2.8751,2.8769,2.8769,2.877,2.8789,2.8787,2.8794,2.8802,2.8797,2.8795,2.8801,2.8782,2.879,2.8788,2.8788,2.8785,2.8782,2.8779,2.8817,2.8818,2.8818,0,0,2.8699,2.8708,2.8704,2.8711,2.8722,2.8732,2.8731,2.8745,2.875,2.8749,2.8764,2.8764,2.8768,2.8773,2.8776,2.8756,2.8766,2.8757,2.8741,2.8737,2.8734,2.8732,2.8724,2.8721,2.8755,2.8755,2.8755,0,2.8681,2.8683,2.87,2.8699,2.8703,2.8723,2.8718,2.8724,2.8735,2.8736,2.8744,2.875,2.8756,2.8753,2.8748,2.875,2.8749,2.8755,2.8734,2.8731,2.8729,2.8722,2.8719,2.8754,2.8754,2.8754,2.8754,0,2.866,2.8662,2.8657,2.8669,2.8672,2.8669,2.8685,2.8687,2.8697,2.8706,2.8705,2.8714,2.8719,2.8719,2.8729,2.8717,2.8721,2.8731,2.8744,2.8724,2.8718,2.8715,2.8752,2.8752,2.8753,2.8753,0,0,2.8618,2.864,2.8638,2.8644,2.8658,2.8659,2.8658,2.8664,2.8665,2.8672,2.8671,2.8674,2.8684,2.8687,2.8698,2.8695,2.8678,2.8705,2.8705,2.8699,2.8665,2.8657,2.8654,2.8685,2.8685,2.8685,2.8665,0,2.8596,2.8596,2.8611,2.8606,2.8608,2.8627,2.8626,2.8634,2.8643,2.8646,2.8656,2.8658,2.867,2.8673,2.8671,2.868,2.8671,2.8682,2.8684,2.8683,2.868,2.8651,2.8642,2.8622,2.8662,2.8662,2.8662,0,2.857,2.8577,2.8573,2.8588,2.8589,2.8588,2.8596,2.8598,2.8608,2.8615,2.862,2.8632,2.8631,2.8644,2.8643,2.865,2.8652,2.8657,2.8657,2.8656,2.867,2.8649,2.8616,2.8613,2.8658,2.8658,2.8658,0,2.854,2.8548,2.8547,2.8551,2.8569,2.8567,2.8575,2.8585,2.8588,2.8595,2.8597,2.8603,2.8606,2.861,2.8623,2.8632,2.8621,2.8635,2.8626,2.8625,2.8621,2.8621,2.8588,2.8624,2.8624,2.8624,2.8624,0,2.8513,2.8509,2.8533,2.8532,2.8529,2.8547,2.8543,2.8552,2.8561,2.8562,2.8579,2.8579,2.8597,2.8599,2.861,2.8607,2.8609,2.8614,2.8616,2.8612,2.8611,2.8612,2.8613,2.8623,2.8623,2.8623,2.8624,0,2.8477,2.8494,2.8493,2.8511,2.8515,2.8512,2.8527,2.8526,2.8537,2.8538,2.8539,2.8556,2.8559,2.8574,2.858,2.8587,2.8581,2.8587,2.8578,2.8579,2.8569,2.857,2.8535,2.8531,2.857,2.8569,2.8569,0,2.8459,2.8457,2.8475,2.8477,2.8484,2.8487,2.8491,2.8509,2.8512,2.8524,2.8522,2.8527,2.8532,2.8537,2.8549,2.8554,2.856,2.8547,2.856,2.8556,2.8559,2.8558,2.8558,2.8544,2.8543,2.8543,2.8542,0,2.8424,2.8433,2.8438,2.8446,2.8451,2.8458,2.8466,2.8467,2.8487,2.8489,2.8494,2.8498,2.8505,2.851,2.8517,2.8524,2.8536,2.8539,2.8537,2.8531,2.8526,2.8528,2.8569,2.8539,2.8539,2.8539,2.854,2.854,2.8396,2.8396,2.8409,2.8414,2.8423,2.843,2.8431,2.8442,2.8447,2.8455,2.8465,2.8468,2.8479,2.8491,2.8497,2.8499,2.8506,2.8503,2.8502,2.8501,2.8498,2.8527,2.85,2.85,2.8501,2.8501,2.8501,0,2.8362,2.8372,2.8377,2.8389,2.8393,2.8406,2.8416,2.8418,2.8421,2.8431,2.8436,2.8441,2.8446,2.8459,2.8465,2.8465,2.847,2.8465,2.8465,2.8466,2.8492,2.8493,2.8461,2.8461,2.8461,2.8461,2.8461,2.8461,2.8345,2.8344,2.8355,2.8359,2.8368,2.8372,2.8377,2.8384,2.8391,2.8397,2.8402,2.8411,2.8422,2.8429,2.8434,2.8438,2.8439,2.8432,2.8437,2.8461,2.8465,2.8468,2.8469,2.8432,2.8432,2.8412,2.8411,2.8411]}]]